[[{"header":{"parameterUnit":"m.s-1","parameterCategory":1,"la1":30.2991,"la2":30.254,"lo1":-89.0895,"lo2":-89.0444,"dy":0.0017,"dx":0.0017,"nx":28,"ny":28,"refTime":"2024-06-13T03:00:00:Z","depth":0,"parameterNumber":2,"parameterNumberName":"U-component_of_WINDS"},"data":[0,0,0,0,0,0,0,0,0,0,0,0,0,0,0,0,0,0,0,0,0,0,0,0,0,0,0,0,0,0,0,0,0,0,0,0,0,0,0,0,0,0,0,0,0,0,0,0,0,0,0,0,0,0,0,0,0,0,-2.4647,-2.4646,0,-2.4623,-2.4623,-2.4622,-2.4518,-2.4515,-2.4513,-2.4511,-2.4487,-2.4489,-2.4491,0,0,0,0,0,0,0,0,0,0,0,0,0,-2.4603,-2.4604,-2.4647,-2.4646,-2.4646,-2.4623,-2.4623,-2.4622,-2.4518,-2.4515,-2.4512,-2.451,-2.4487,-2.4489,-2.4491,0,0,0,0,0,0,0,0,0,0,0,0,0,-2.4605,-2.4605,-2.4647,-2.4591,-2.4586,-2.4623,-2.4623,-2.4622,-2.4519,-2.4515,-2.4512,-2.4508,-2.4486,-2.4489,-2.4491,-2.458,0,0,-2.4499,-2.45,0,0,0,0,0,0,0,0,-2.4605,-2.4607,-2.46,-2.4595,-2.4589,-2.457,-2.4598,-2.4608,-2.452,-2.4545,-2.4511,-2.4506,-2.4518,-2.4517,-2.4521,-2.4579,-2.4578,-2.4499,-2.45,-2.4502,-2.4502,0,0,0,0,0,0,0,-2.4605,-2.4607,-2.4637,-2.46,-2.4594,-2.4568,-2.4564,-2.46,-2.4552,-2.4542,-2.4534,-2.4533,-2.4514,-2.4519,-2.452,-2.4577,-2.4499,-2.4501,-2.4503,-2.4504,-2.4706,-2.471,0,0,0,0,0,0,-2.4612,-2.4608,-2.4638,-2.4636,-2.4588,-2.4572,-2.4568,-2.458,-2.4551,-2.4543,-2.4536,-2.4528,-2.4517,-2.4517,-2.4519,-2.4619,-2.4501,-2.4504,-2.4505,-2.4702,-2.4707,-2.4711,0,0,0,0,0,0,-2.4612,-2.4616,-2.4639,-2.462,-2.4621,-2.4576,-2.4591,-2.4581,-2.4585,-2.4547,-2.4538,-2.455,-2.4514,-2.4515,-2.4565,-2.4617,-2.4505,-2.4507,-2.4698,-2.4704,-2.4709,-2.4823,0,0,0,0,0,0,-2.4611,-2.4616,-2.4649,-2.4621,-2.4622,-2.4686,-2.4594,-2.4583,-2.459,-2.4579,-2.4557,-2.455,-2.4511,-2.4562,-2.4568,-2.4619,-2.4509,-2.4693,-2.47,-2.4707,-2.4814,-2.4832,-2.4847,0,0,0,0,0,-2.461,-2.4683,-2.4652,-2.4656,-2.4662,-2.4689,-2.4689,-2.4643,-2.4595,-2.4627,-2.4603,-2.4551,-2.4611,-2.4568,-2.4573,-2.4626,-2.4689,-2.4698,-2.4707,-2.4807,-2.4828,-2.4846,0,0,0,0,0,0,-2.4718,-2.4678,-2.4643,-2.4709,-2.4703,-2.4671,-2.4711,-2.4667,-2.4675,-2.4665,-2.4607,-2.4603,-2.4661,-2.4649,-2.4602,-2.471,-2.4641,-2.4652,-2.4716,-2.4736,-2.4752,-2.4753,-2.4511,0,0,0,0,0,-2.475,-2.4774,-2.4738,-2.48,-2.4799,-2.4756,-2.4766,-2.473,-2.4722,-2.4719,-2.4698,-2.4692,-2.471,-2.4722,-2.4736,-2.4813,-2.4806,-2.4852,-2.4868,-2.4882,-2.489,-2.4929,-2.4948,-2.474,-2.474,-2.474,0,0,-2.4815,-2.4796,-2.4815,-2.4821,-2.4812,-2.4839,-2.4754,-2.4786,-2.4806,-2.4724,-2.4769,-2.4754,-2.4744,-2.4807,-2.4834,-2.4799,-2.4947,-2.4893,-2.4904,-2.4905,-2.494,-2.496,-2.4977,-2.4746,-2.4745,-2.4744,0,0,-2.4947,-2.4936,-2.4985,-2.4979,-2.4966,-2.4938,-2.495,-2.4925,-2.4911,-2.4956,-2.4895,-2.4918,-2.495,-2.4945,-2.4946,-2.5078,-2.503,-2.5085,-2.5169,-2.5208,-2.5224,-2.5238,-2.5284,-2.5301,-2.5094,-2.5095,-2.5095,0,-2.5029,-2.5067,-2.5017,-2.5052,-2.5056,-2.4984,-2.5034,-2.503,-2.5024,-2.5028,-2.4989,-2.5027,-2.5016,-2.5076,-2.5108,-2.5113,-2.5124,-2.5086,-2.5226,-2.524,-2.5252,-2.5295,-2.5312,-2.5101,-2.51,-2.51,-2.5099,0,-2.5168,-2.5195,-2.5237,-2.5232,-2.5241,-2.5284,-2.5241,-2.5256,-2.5221,-2.5197,-2.5243,-2.5227,-2.5236,-2.5248,-2.5214,-2.5305,-2.5283,-2.5236,-2.5165,-2.5279,-2.5318,-2.5334,-2.511,-2.5108,-2.5106,-2.5105,0,0,-2.5365,-2.5333,-2.5348,-2.5345,-2.5327,-2.5347,-2.5388,-2.5396,-2.541,-2.5409,-2.544,-2.547,-2.5426,-2.5428,-2.5393,-2.5427,-2.5531,-2.5376,-2.5375,-2.5404,-2.5628,-2.5662,-2.5682,-2.5501,-2.5504,-2.5506,-2.5628,0,-2.5489,-2.5554,-2.5511,-2.5583,-2.5607,-2.554,-2.5575,-2.5568,-2.5547,-2.5565,-2.5542,-2.5563,-2.5504,-2.5505,-2.5536,-2.5512,-2.5575,-2.5503,-2.5528,-2.553,-2.553,-2.5702,-2.5738,-2.5854,-2.5644,-2.5646,-2.5648,0,-2.5642,-2.5647,-2.5722,-2.5699,-2.5707,-2.5739,-2.5744,-2.5762,-2.5753,-2.5735,-2.5739,-2.5695,-2.5733,-2.5666,-2.5717,-2.5669,-2.5677,-2.5668,-2.5671,-2.5669,-2.5594,-2.5703,-2.589,-2.5907,-2.5672,-2.567,-2.5668,0,-2.5776,-2.5802,-2.5849,-2.5849,-2.5824,-2.5848,-2.5839,-2.5826,-2.5834,-2.5839,-2.5844,-2.5853,-2.5858,-2.5867,-2.5827,-2.5782,-2.5883,-2.5813,-2.5869,-2.587,-2.5891,-2.5889,-2.6079,-2.5901,-2.5901,-2.59,-2.59,0,-2.5917,-2.5965,-2.5908,-2.5938,-2.5989,-2.594,-2.5993,-2.5977,-2.5967,-2.5992,-2.5936,-2.596,-2.5908,-2.5928,-2.5898,-2.5944,-2.5947,-2.5933,-2.5924,-2.5937,-2.5938,-2.5939,-2.5929,-2.5905,-2.5904,-2.5903,-2.5902,0,-2.6074,-2.6038,-2.6085,-2.6058,-2.6053,-2.6092,-2.6069,-2.6095,-2.6071,-2.6103,-2.6108,-2.6071,-2.6091,-2.6053,-2.6069,-2.6049,-2.6113,-2.6093,-2.6115,-2.6108,-2.6165,-2.616,-2.636,-2.6383,-2.6193,-2.6195,-2.6197,0,-2.6165,-2.62,-2.6177,-2.6189,-2.6183,-2.6205,-2.6213,-2.6167,-2.6177,-2.6171,-2.6197,-2.6213,-2.6223,-2.6258,-2.6233,-2.6244,-2.6222,-2.6292,-2.6223,-2.6235,-2.6221,-2.6218,-2.622,-2.6305,-2.6307,-2.6309,-2.6311,0,-2.633,-2.631,-2.6324,-2.6332,-2.6343,-2.6347,-2.6347,-2.6361,-2.6312,-2.6327,-2.6347,-2.6355,-2.6371,-2.6387,-2.6393,-2.6383,-2.6339,-2.6333,-2.6346,-2.6358,-2.6369,-2.6361,-2.6151,-2.6328,-2.6326,-2.6325,-2.6324,-2.6323,-2.6454,-2.6482,-2.647,-2.6487,-2.6482,-2.6484,-2.6507,-2.6486,-2.6502,-2.651,-2.6483,-2.6509,-2.6501,-2.6504,-2.65,-2.652,-2.6489,-2.6508,-2.6513,-2.6518,-2.6526,-2.6368,-2.6521,-2.6521,-2.652,-2.652,-2.6519,0,-2.6614,-2.6603,-2.662,-2.6621,-2.6635,-2.6593,-2.6592,-2.6605,-2.6629,-2.6625,-2.6636,-2.6659,-2.6674,-2.6651,-2.6662,-2.6683,-2.6663,-2.6687,-2.6684,-2.6682,-2.6554,-2.654,-2.6703,-2.6703,-2.6703,-2.6703,-2.6703,-2.6703,-2.6698,-2.6742,-2.6722,-2.6764,-2.6753,-2.6778,-2.678,-2.6782,-2.6778,-2.6806,-2.6819,-2.6803,-2.6791,-2.6802,-2.6814,-2.6807,-2.6813,-2.6844,-2.683,-2.671,-2.6691,-2.6674,-2.6661,-2.6847,-2.6847,-2.6956,-2.6957,-2.6958]},{"header":{"parameterUnit":"m.s-1","parameterCategory":1,"la1":30.2991,"la2":30.254,"lo1":-89.0895,"lo2":-89.0444,"dy":0.0017,"dx":0.0017,"nx":28,"ny":28,"refTime":"2024-06-13T03:00:00:Z","depth":0,"parameterNumber":3,"parameterNumberName":"V-component_of_WINDS"},"data":[0,0,0,0,0,0,0,0,0,0,0,0,0,0,0,0,0,0,0,0,0,0,0,0,0,0,0,0,0,0,0,0,0,0,0,0,0,0,0,0,0,0,0,0,0,0,0,0,0,0,0,0,0,0,0,0,0,0,-2.4142,-2.4142,0,-2.419,-2.419,-2.4191,-2.4192,-2.4192,-2.4191,-2.419,-2.4237,-2.4239,-2.4241,0,0,0,0,0,0,0,0,0,0,0,0,0,-2.4047,-2.4049,-2.4142,-2.4142,-2.4143,-2.419,-2.419,-2.4191,-2.4192,-2.4192,-2.4191,-2.419,-2.4237,-2.4239,-2.4241,0,0,0,0,0,0,0,0,0,0,0,0,0,-2.4091,-2.405,-2.4141,-2.4149,-2.415,-2.4189,-2.419,-2.4191,-2.4192,-2.4192,-2.4191,-2.419,-2.4236,-2.4239,-2.4241,-2.4275,0,0,-2.4249,-2.4251,0,0,0,0,0,0,0,0,-2.4089,-2.4094,-2.4147,-2.4149,-2.415,-2.4184,-2.4174,-2.4219,-2.4193,-2.4176,-2.419,-2.4189,-2.422,-2.4224,-2.4235,-2.4277,-2.4279,-2.425,-2.4251,-2.4252,-2.4253,0,0,0,0,0,0,0,-2.4086,-2.4092,-2.416,-2.4148,-2.415,-2.4149,-2.4154,-2.4183,-2.4202,-2.4178,-2.4178,-2.4184,-2.4221,-2.4232,-2.4236,-2.428,-2.425,-2.4252,-2.4254,-2.4255,-2.4351,-2.4352,0,0,0,0,0,0,-2.4081,-2.409,-2.4159,-2.4162,-2.4117,-2.4151,-2.4157,-2.4174,-2.4202,-2.4206,-2.4184,-2.4184,-2.4228,-2.4233,-2.4238,-2.4278,-2.4252,-2.4255,-2.4256,-2.435,-2.4351,-2.4352,0,0,0,0,0,0,-2.4079,-2.4088,-2.4157,-2.4126,-2.4135,-2.4154,-2.4173,-2.4175,-2.4187,-2.4207,-2.421,-2.4193,-2.4228,-2.4234,-2.4266,-2.428,-2.4256,-2.4259,-2.4349,-2.435,-2.4352,-2.436,0,0,0,0,0,0,-2.4077,-2.4087,-2.4101,-2.4126,-2.4136,-2.4185,-2.4174,-2.4177,-2.4192,-2.4191,-2.4216,-2.4219,-2.4227,-2.4262,-2.4268,-2.4283,-2.4261,-2.4348,-2.4349,-2.4351,-2.4359,-2.4362,-2.4364,0,0,0,0,0,-2.4073,-2.4101,-2.4102,-2.411,-2.4155,-2.4186,-2.4192,-2.4201,-2.4193,-2.4207,-2.4219,-2.4219,-2.4277,-2.4265,-2.4272,-2.4288,-2.4347,-2.4349,-2.4351,-2.4357,-2.4361,-2.4364,0,0,0,0,0,0,-2.4076,-2.4105,-2.4105,-2.4143,-2.4162,-2.4186,-2.4204,-2.4205,-2.4227,-2.4225,-2.4235,-2.4241,-2.4272,-2.4283,-2.4269,-2.4322,-2.4311,-2.4315,-2.4313,-2.4317,-2.4319,-2.4316,-2.4263,0,0,0,0,0,-2.4081,-2.4106,-2.4129,-2.4159,-2.4169,-2.4185,-2.4199,-2.4204,-2.4224,-2.4232,-2.4248,-2.4266,-2.4289,-2.4303,-2.4325,-2.436,-2.4365,-2.4375,-2.4377,-2.438,-2.4382,-2.44,-2.4404,-2.4359,-2.4359,-2.4359,0,0,-2.4092,-2.411,-2.4125,-2.416,-2.4176,-2.4199,-2.4192,-2.4217,-2.4234,-2.4236,-2.4267,-2.4279,-2.43,-2.4333,-2.4348,-2.4343,-2.4396,-2.4382,-2.4384,-2.4386,-2.4403,-2.4407,-2.4411,-2.4361,-2.436,-2.436,0,0,-2.4123,-2.414,-2.4166,-2.4182,-2.4206,-2.4216,-2.4223,-2.4247,-2.4255,-2.4286,-2.4287,-2.4307,-2.4346,-2.4361,-2.4374,-2.4409,-2.4409,-2.4416,-2.443,-2.4447,-2.4451,-2.4454,-2.4465,-2.447,-2.4419,-2.4419,-2.4419,0,-2.4132,-2.4169,-2.418,-2.4205,-2.422,-2.4223,-2.4249,-2.4264,-2.4293,-2.4303,-2.4297,-2.4345,-2.436,-2.4396,-2.4404,-2.4415,-2.4421,-2.4413,-2.445,-2.4453,-2.4456,-2.4467,-2.4471,-2.442,-2.4419,-2.4419,-2.4419,0,-2.4179,-2.4205,-2.4223,-2.4252,-2.4269,-2.4294,-2.4307,-2.4323,-2.4327,-2.4337,-2.4368,-2.4386,-2.4411,-2.442,-2.4424,-2.4456,-2.4452,-2.4448,-2.4437,-2.4461,-2.4471,-2.4476,-2.442,-2.442,-2.442,-2.442,0,0,-2.4214,-2.4248,-2.4254,-2.4267,-2.4293,-2.4312,-2.4337,-2.4362,-2.4375,-2.4395,-2.4415,-2.4447,-2.4444,-2.4458,-2.4463,-2.4478,-2.4504,-2.4473,-2.4473,-2.4477,-2.4538,-2.454,-2.4545,-2.4504,-2.4504,-2.4505,-2.4536,0,-2.4247,-2.4292,-2.4302,-2.4341,-2.4364,-2.4366,-2.4388,-2.4405,-2.4415,-2.4435,-2.4446,-2.4468,-2.4462,-2.4471,-2.4486,-2.4497,-2.4516,-2.4495,-2.4521,-2.4522,-2.4515,-2.4551,-2.4554,-2.4582,-2.454,-2.4541,-2.4542,0,-2.4292,-2.4313,-2.4354,-2.4376,-2.4386,-2.4406,-2.4428,-2.4448,-2.4467,-2.4473,-2.4489,-2.4492,-2.4517,-2.4505,-2.4539,-2.4524,-2.4535,-2.4543,-2.4544,-2.4546,-2.4533,-2.4553,-2.4592,-2.4595,-2.4548,-2.4548,-2.4547,0,-2.4311,-2.435,-2.438,-2.439,-2.4417,-2.443,-2.4442,-2.4461,-2.4475,-2.4494,-2.4503,-2.4525,-2.4537,-2.4554,-2.4562,-2.4554,-2.4595,-2.4584,-2.4599,-2.4599,-2.4607,-2.4606,-2.4647,-2.4616,-2.4616,-2.4616,-2.4615,0,-2.4346,-2.4371,-2.4389,-2.4407,-2.4434,-2.4444,-2.4471,-2.4482,-2.4498,-2.4517,-2.4521,-2.4539,-2.455,-2.4569,-2.4576,-2.4601,-2.4607,-2.4611,-2.4613,-2.4611,-2.461,-2.4617,-2.4615,-2.4617,-2.4616,-2.4616,-2.4616,0,-2.4373,-2.4386,-2.4418,-2.444,-2.4446,-2.4465,-2.4484,-2.4501,-2.4511,-2.4535,-2.4541,-2.4556,-2.4578,-2.4589,-2.4617,-2.4621,-2.465,-2.4651,-2.4644,-2.4644,-2.4658,-2.4656,-2.4704,-2.471,-2.4676,-2.4676,-2.4676,0,-2.4394,-2.4413,-2.4438,-2.4451,-2.4463,-2.4485,-2.4499,-2.451,-2.4524,-2.4547,-2.4561,-2.4583,-2.4602,-2.4637,-2.465,-2.467,-2.4671,-2.4686,-2.4674,-2.4671,-2.467,-2.4668,-2.4669,-2.4688,-2.4689,-2.4689,-2.4689,0,-2.443,-2.4435,-2.4456,-2.4479,-2.4496,-2.4515,-2.4532,-2.4543,-2.4556,-2.4571,-2.4595,-2.4609,-2.4637,-2.4659,-2.468,-2.4691,-2.4692,-2.4693,-2.4697,-2.4695,-2.469,-2.4691,-2.4649,-2.4692,-2.4691,-2.4691,-2.4691,-2.4691,-2.4454,-2.4471,-2.449,-2.4513,-2.4528,-2.4544,-2.4561,-2.4573,-2.4592,-2.4616,-2.4621,-2.4645,-2.4663,-2.4692,-2.4703,-2.4721,-2.4717,-2.4724,-2.4725,-2.4727,-2.4727,-2.4687,-2.4725,-2.4725,-2.4725,-2.4725,-2.4725,0,-2.4489,-2.4502,-2.4523,-2.4548,-2.4565,-2.4566,-2.4585,-2.4599,-2.4621,-2.4637,-2.4656,-2.4681,-2.4702,-2.4716,-2.4737,-2.4749,-2.475,-2.4754,-2.4753,-2.4755,-2.4729,-2.4723,-2.4753,-2.4753,-2.4753,-2.4753,-2.4753,-2.4753,-2.451,-2.4538,-2.4545,-2.4579,-2.4592,-2.4616,-2.4627,-2.4641,-2.4655,-2.4684,-2.4701,-2.4711,-2.4726,-2.4747,-2.4766,-2.477,-2.4777,-2.4781,-2.4784,-2.476,-2.4757,-2.4754,-2.4748,-2.4783,-2.4783,-2.4808,-2.4808,-2.4808]}]]